| time (UTC) | temp F | wind direction | speed knots | gust knots | rain 1hr in | rain 24hr in | rain mn in | humidity % | barometer mb |
| 20260507223015 | 79 | 71 | 2.6 | 5.2 | 0.00 | 0.00 | 0.00 | 14 | 1009.0 |
| 20260507221512 | 80 | 67 | 6.1 | 11.3 | 0.00 | 0.00 | 0.00 | 14 | 1009.0 |
| 20260507220011 | 79 | 43 | 1.7 | 4.3 | 0.00 | 0.00 | 0.00 | 16 | 1009.1 |
| 20260507214518 | 79 | 37 | 1.7 | 7.0 | 0.00 | 0.00 | 0.00 | 15 | 1009.2 |
| 20260507213007 | 79 | 36 | 2.6 | 7.8 | 0.00 | 0.00 | 0.00 | 15 | 1009.4 |
| 20260507211506 | 79 | 290 | 0.9 | 7.8 | 0.00 | 0.00 | 0.00 | 14 | 1009.4 |
| 20260507210006 | 83 | 355 | 1.7 | 9.6 | 0.00 | 0.00 | 0.00 | 15 | 1009.4 |
| 20260507204500 | 78 | 50 | 2.6 | 5.2 | 0.00 | 0.00 | 0.00 | 16 | 1009.8 |
| 20260507203100 | 78 | 49 | 1.7 | 8.7 | 0.00 | 0.00 | 0.00 | 16 | 1009.9 |
| 20260507201558 | 80 | 259 | 2.6 | 5.2 | 0.00 | 0.00 | 0.00 | 15 | 1009.8 |
| 20260507200055 | 78 | 259 | 0.9 | 6.1 | 0.00 | 0.00 | 0.00 | 16 | 1010.2 |
| 20260507194554 | 78 | 259 | 0.9 | 10.4 | 0.00 | 0.00 | 0.00 | 16 | 1010.4 |
| 20260507193057 | 79 | 257 | 4.3 | 8.7 | 0.00 | 0.00 | 0.00 | 16 | 1010.6 |
| 20260507191548 | 79 | 257 | 1.7 | 10.4 | 0.00 | 0.00 | 0.00 | 16 | 1010.7 |
| 20260507190047 | 79 | 253 | 3.5 | 7.0 | 0.00 | 0.00 | 0.00 | 17 | 1011.0 |
| 20260507184548 | 78 | 253 | 3.5 | 7.8 | 0.00 | 0.00 | 0.00 | 17 | 1011.4 |
| 20260507183043 | 79 | 254 | 0.9 | 7.8 | 0.00 | 0.00 | 0.00 | 17 | 1011.4 |
| 20260507181542 | 78 | 254 | 1.7 | 4.3 | 0.00 | 0.00 | 0.00 | 17 | 1011.5 |
| 20260507180041 | 78 | 251 | 3.5 | 12.2 | 0.00 | 0.00 | 0.00 | 17 | 1011.5 |
| 20260507174556 | 77 | 251 | 2.6 | 11.3 | 0.00 | 0.00 | 0.00 | 17 | 1011.5 |
| 20260507173036 | 76 | 246 | 4.3 | 9.6 | 0.00 | 0.00 | 0.00 | 19 | 1011.7 |
| 20260507171545 | 75 | 177 | 1.7 | 5.2 | 0.00 | 0.00 | 0.00 | 18 | 1011.8 |
| 20260507170033 | 75 | 180 | 3.5 | 6.1 | 0.00 | 0.00 | 0.00 | 19 | 1012.0 |
| 20260507164530 | 73 | 181 | 2.6 | 5.2 | 0.00 | 0.00 | 0.00 | 20 | 1012.3 |
| 20260507163028 | 72 | 178 | 0.0 | 2.6 | 0.00 | 0.00 | 0.00 | 22 | 1012.3 |
| 20260507161527 | 72 | 178 | 0.0 | 3.5 | 0.00 | 0.00 | 0.00 | 25 | 1012.7 |
| 20260507160021 | 69 | 178 | 1.7 | 5.2 | 0.00 | 0.00 | 0.00 | 26 | 1012.8 |
| 20260507154520 | 68 | 178 | 0.0 | 5.2 | 0.00 | 0.00 | 0.00 | 28 | 1013.1 |
| 20260507153019 | 67 | 178 | 2.6 | 6.1 | 0.00 | 0.00 | 0.00 | 29 | 1013.3 |
| 20260507151513 | 64 | 188 | 1.7 | 6.1 | 0.00 | 0.00 | 0.00 | 31 | 1013.5 |
| 20260507150017 | 65 | 188 | 1.7 | 6.1 | 0.00 | 0.00 | 0.00 | 31 | 1013.4 |
| 20260507144509 | 63 | 188 | 0.9 | 2.6 | 0.00 | 0.00 | 0.00 | 32 | 1013.5 |
| 20260507143007 | 61 | 188 | 0.0 | 0.0 | 0.00 | 0.00 | 0.00 | 33 | 1013.3 |
| 20260507141502 | 59 | 188 | 0.0 | 1.7 | 0.00 | 0.00 | 0.00 | 37 | 1013.4 |
| 20260507140113 | 58 | 188 | 1.7 | 3.5 | 0.00 | 0.00 | 0.00 | 38 | 1013.6 |
| 20260507134559 | 56 | 192 | 0.0 | 4.3 | 0.00 | 0.00 | 0.00 | 41 | 1013.6 |
| 20260507133100 | 52 | 255 | 0.0 | 0.0 | 0.00 | 0.00 | 0.00 | 47 | 1013.5 |
| 20260507131616 | 49 | 255 | 0.0 | 0.0 | 0.00 | 0.00 | 0.00 | 52 | 1013.5 |
| 20260507130052 | 48 | 255 | 0.0 | 0.0 | 0.00 | 0.00 | 0.00 | 52 | 1013.4 |
| 20260507124600 | 47 | 255 | 0.0 | 0.0 | 0.00 | 0.00 | 0.00 | 53 | 1013.1 |
| 20260507123054 | 46 | 255 | 0.0 | 0.0 | 0.00 | 0.00 | 0.00 | 55 | 1013.1 |
| 20260507121548 | 48 | 255 | 0.0 | 0.0 | 0.00 | 0.00 | 0.00 | 52 | 1013.0 |
| 20260507120047 | 49 | 255 | 0.0 | 0.0 | 0.00 | 0.00 | 0.00 | 50 | 1012.9 |
| 20260507114547 | 50 | 255 | 0.0 | 0.0 | 0.00 | 0.00 | 0.00 | 48 | 1012.9 |
| 20260507113106 | 50 | 255 | 0.0 | 0.0 | 0.00 | 0.00 | 0.00 | 49 | 1013.1 |
| 20260507111544 | 49 | 255 | 0.0 | 0.0 | 0.00 | 0.00 | 0.00 | 51 | 1013.1 |
| 20260507110043 | 50 | 255 | 0.0 | 0.0 | 0.00 | 0.00 | 0.00 | 49 | 1013.1 |
| 20260507104554 | 49 | 255 | 0.0 | 0.0 | 0.00 | 0.00 | 0.00 | 50 | 1013.1 |
| 20260507103042 | 49 | 255 | 0.0 | 0.0 | 0.00 | 0.00 | 0.00 | 51 | 1013.0 |
| 20260507101539 | 50 | 255 | 0.0 | 0.0 | 0.00 | 0.00 | 0.00 | 48 | 1013.0 |
| 20260507100051 | 52 | 255 | 0.0 | 1.7 | 0.00 | 0.00 | 0.00 | 46 | 1013.2 |
| 20260507094539 | 49 | 255 | 0.0 | 0.0 | 0.00 | 0.00 | 0.00 | 50 | 1013.2 |
| 20260507093036 | 50 | 255 | 0.0 | 0.0 | 0.00 | 0.00 | 0.00 | 49 | 1013.2 |
| 20260507091539 | 51 | 255 | 0.0 | 0.0 | 0.00 | 0.00 | 0.00 | 47 | 1013.2 |
| 20260507090030 | 52 | 255 | 0.0 | 1.7 | 0.00 | 0.00 | 0.00 | 45 | 1013.3 |
| 20260507084545 | 52 | 255 | 0.0 | 0.9 | 0.00 | 0.00 | 0.00 | 46 | 1013.4 |
| 20260507083027 | 52 | 255 | 0.0 | 1.7 | 0.00 | 0.00 | 0.00 | 46 | 1013.6 |
| 20260507081524 | 53 | 255 | 0.0 | 2.6 | 0.00 | 0.00 | 0.00 | 44 | 1013.8 |
| 20260507080022 | 52 | 255 | 0.0 | 0.9 | 0.00 | 0.00 | 0.00 | 46 | 1013.9 |
| 20260507074522 | 53 | 255 | 0.0 | 1.7 | 0.00 | 0.00 | 0.00 | 44 | 1014.0 |
| 20260507073024 | 52 | 255 | 0.0 | 0.0 | 0.00 | 0.00 | 0.00 | 47 | 1014.0 |
| 20260507071518 | 54 | 255 | 0.0 | 0.0 | 0.00 | 0.00 | 0.00 | 43 | 1014.1 |
| 20260507070019 | 55 | 255 | 0.0 | 0.0 | 0.00 | 0.00 | 0.00 | 42 | 1014.2 |
| 20260507064513 | 55 | 255 | 0.0 | 0.9 | 0.00 | 0.00 | 0.00 | 41 | 1014.1 |
| 20260507063015 | 55 | 255 | 0.0 | 1.7 | 0.00 | 0.00 | 0.00 | 41 | 1014.1 |
| 20260507061513 | 57 | 255 | 0.0 | 0.9 | 0.00 | 0.00 | 0.00 | 39 | 1014.0 |
| 20260507060017 | 57 | 255 | 0.0 | 1.7 | 0.00 | 0.00 | 0.00 | 38 | 1014.0 |
| 20260507054511 | 59 | 255 | 0.0 | 0.0 | 0.00 | 0.00 | 0.00 | 37 | 1014.0 |
| 20260507053010 | 59 | 255 | 0.0 | 0.0 | 0.00 | 0.00 | 0.00 | 35 | 1013.9 |
| 20260507051510 | 61 | 255 | 0.0 | 1.7 | 0.00 | 0.00 | 0.00 | 32 | 1013.9 |
| 20260507050029 | 61 | 255 | 0.0 | 1.7 | 0.00 | 0.00 | 0.00 | 33 | 1013.8 |
| 20260507044516 | 62 | 255 | 0.0 | 1.7 | 0.00 | 0.00 | 0.00 | 33 | 1013.6 |
| 20260507043008 | 62 | 255 | 0.0 | 0.9 | 0.00 | 0.00 | 0.00 | 33 | 1013.5 |
| 20260507041508 | 63 | 255 | 0.0 | 1.7 | 0.00 | 0.00 | 0.00 | 31 | 1013.3 |
| 20260507040007 | 64 | 255 | 0.0 | 1.7 | 0.00 | 0.00 | 0.00 | 30 | 1013.2 |
| 20260507034507 | 65 | 255 | 0.0 | 4.3 | 0.00 | 0.00 | 0.00 | 29 | 1012.9 |
| 20260507033007 | 65 | 255 | 1.7 | 3.5 | 0.00 | 0.00 | 0.00 | 29 | 1012.8 |
| 20260507031507 | 66 | 255 | 2.6 | 4.3 | 0.00 | 0.00 | 0.00 | 27 | 1012.7 |
| 20260507030006 | 65 | 255 | 0.0 | 0.0 | 0.00 | 0.00 | 0.00 | 28 | 1012.5 |
| 20260507024506 | 67 | 255 | 0.0 | 0.0 | 0.00 | 0.00 | 0.00 | 27 | 1012.3 |
| 20260507023005 | 68 | 255 | 0.0 | 0.0 | 0.00 | 0.00 | 0.00 | 25 | 1012.1 |
| 20260507021506 | 69 | 255 | 0.0 | 0.0 | 0.00 | 0.00 | 0.00 | 24 | 1012.1 |
| 20260507020003 | 71 | 255 | 0.0 | 2.6 | 0.00 | 0.00 | 0.00 | 23 | 1011.9 |
| 20260507014502 | 73 | 255 | 0.9 | 3.5 | 0.00 | 0.00 | 0.00 | 21 | 1011.9 |
| 20260507013001 | 74 | 255 | 0.9 | 4.3 | 0.00 | 0.00 | 0.00 | 21 | 1011.9 |
| 20260507011605 | 74 | 255 | 4.3 | 8.7 | 0.00 | 0.00 | 0.00 | 21 | 1011.8 |
| 20260507004559 | 76 | 254 | 1.7 | 7.8 | 0.00 | 0.00 | 0.00 | 21 | 1012.0 |
| 20260507003059 | 75 | 254 | 4.3 | 9.6 | 0.00 | 0.00 | 0.00 | 21 | 1011.8 |
| 20260507001605 | 76 | 252 | 2.6 | 7.0 | 0.00 | 0.00 | 0.00 | 21 | 1011.7 |
| 20260507000058 | 77 | 253 | 3.5 | 11.3 | 0.00 | 0.00 | 0.00 | 22 | 1011.7 |
| 20260506234624 | 76 | 254 | 5.2 | 10.4 | 0.00 | 0.00 | 0.00 | 22 | 1011.8 |
| 20260506233055 | 76 | 257 | 0.9 | 6.1 | 0.00 | 0.00 | 0.00 | 20 | 1011.9 |
| 20260506231556 | 77 | 254 | 4.3 | 10.4 | 0.00 | 0.00 | 0.00 | 20 | 1011.9 |
| 20260506230054 | 77 | 241 | 7.0 | 14.8 | 0.00 | 0.00 | 0.00 | 21 | 1012.2 |
| 20260506224550 | 76 | 360 | 0.0 | 4.3 | 0.00 | 0.00 | 0.00 | 21 | 1012.3 |